AP02N RPLL-RPLL

Flight info

Callsign AP02N
Flight time 0h 30m
Altitude 7000
Route JOM2A JOM DCT POLIO POLIO1C
Aircraft C172/L-SFG/C

Departure

Time 2026-05-07 07:03
Airport Ninoy Aquino International Airport (RPLL)

Arrival

Time 2026-05-07 07:33
Airport Ninoy Aquino International Airport (RPLL)
Time Latitude Longitude Altitude Speed Heading
2026-05-07 06:42 14.51548 121.02681 23 ft 0 kts 241°
2026-05-07 06:49 14.51547 121.02678 23 ft 0 kts 259°
2026-05-07 06:50 14.51547 121.02675 23 ft 0 kts 286°
2026-05-07 06:51 14.51565 121.02679 22 ft 5 kts 58°
2026-05-07 06:51 14.51572 121.02696 22 ft 3 kts 84°
2026-05-07 06:51 14.51569 121.02702 22 ft 0 kts 141°
2026-05-07 06:53 14.51563 121.02707 22 ft 5 kts 139°
2026-05-07 06:53 14.51508 121.02742 22 ft 8 kts 146°
2026-05-07 06:53 14.51443 121.02714 23 ft 18 kts 241°
2026-05-07 06:53 14.51381 121.02591 27 ft 13 kts 248°
2026-05-07 06:54 14.51368 121.02568 27 ft 7 kts 233°
2026-05-07 06:54 14.51319 121.02485 28 ft 20 kts 241°
2026-05-07 06:54 14.51231 121.02327 31 ft 25 kts 240°
2026-05-07 06:54 14.51192 121.02270 32 ft 4 kts 224°
2026-05-07 06:55 14.51180 121.02249 33 ft 9 kts 249°
2026-05-07 06:55 14.51155 121.02192 33 ft 0 kts 239°
2026-05-07 06:56 14.51154 121.02190 33 ft 2 kts 238°
2026-05-07 06:56 14.51123 121.02140 33 ft 14 kts 243°
2026-05-07 06:56 14.51064 121.02026 32 ft 8 kts 239°
2026-05-07 06:56 14.51062 121.02023 32 ft 0 kts 238°
2026-05-07 06:59 14.51052 121.02004 32 ft 9 kts 243°
2026-05-07 06:59 14.50994 121.01902 26 ft 23 kts 243°
2026-05-07 06:59 14.51040 121.01773 23 ft 25 kts 319°
2026-05-07 06:59 14.51179 121.01633 23 ft 31 kts 319°
2026-05-07 07:00 14.51340 121.01464 27 ft 35 kts 316°
2026-05-07 07:00 14.51528 121.01282 32 ft 38 kts 310°
2026-05-07 07:00 14.51717 121.01072 36 ft 41 kts 316°
2026-05-07 07:00 14.51849 121.00935 38 ft 13 kts 267°
2026-05-07 07:01 14.51829 121.00957 38 ft 6 kts 114°
2026-05-07 07:01 14.51828 121.00959 38 ft 0 kts 122°
2026-05-07 07:02 14.51815 121.00974 38 ft 16 kts 141°
2026-05-07 07:02 14.51627 121.01164 34 ft 59 kts 135°
2026-05-07 07:02 14.51255 121.01546 68 ft 83 kts 134°
2026-05-07 07:03 14.50855 121.01980 205 ft 89 kts 131°
2026-05-07 07:03 14.50423 121.02454 424 ft 87 kts 129°
2026-05-07 07:03 14.49951 121.02929 593 ft 98 kts 134°
2026-05-07 07:03 14.49492 121.03402 925 ft 94 kts 131°
2026-05-07 07:04 14.49047 121.03965 979 ft 111 kts 127°
2026-05-07 07:04 14.48558 121.04612 1051 ft 115 kts 124°
2026-05-07 07:04 14.48026 121.05286 1073 ft 115 kts 127°
2026-05-07 07:04 14.47524 121.05958 1055 ft 122 kts 125°
2026-05-07 07:05 14.47035 121.06615 1091 ft 105 kts 127°
2026-05-07 07:05 14.46550 121.07251 849 ft 116 kts 129°
2026-05-07 07:05 14.46062 121.07900 736 ft 114 kts 128°
2026-05-07 07:05 14.45395 121.08239 549 ft 120 kts 190°
2026-05-07 07:06 14.44716 121.07706 534 ft 113 kts 221°
2026-05-07 07:06 14.44196 121.07166 646 ft 103 kts 220°
2026-05-07 07:06 14.43601 121.06602 276 ft 133 kts 215°
2026-05-07 07:06 14.42929 121.06040 554 ft 111 kts 208°
2026-05-07 07:07 14.42264 121.05512 377 ft 132 kts 212°
2026-05-07 07:07 14.41829 121.04738 465 ft 127 kts 264°
2026-05-07 07:07 14.42029 121.03888 529 ft 130 kts 291°
2026-05-07 07:07 14.42260 121.02982 487 ft 131 kts 280°
2026-05-07 07:08 14.42429 121.02043 451 ft 130 kts 277°
2026-05-07 07:08 14.42545 121.01130 468 ft 119 kts 272°
2026-05-07 07:08 14.42540 121.00228 441 ft 129 kts 289°
2026-05-07 07:08 14.42766 120.99345 502 ft 137 kts 287°
2026-05-07 07:09 14.42962 120.98412 574 ft 127 kts 272°
2026-05-07 07:09 14.43519 120.97806 455 ft 129 kts 356°
2026-05-07 07:09 14.44392 120.97579 415 ft 133 kts 349°
2026-05-07 07:09 14.45256 120.97304 381 ft 133 kts 346°
2026-05-07 07:10 14.46105 120.97031 397 ft 128 kts 347°
2026-05-07 07:10 14.46929 120.96741 425 ft 126 kts 346°
2026-05-07 07:10 14.47748 120.96434 429 ft 124 kts 345°
2026-05-07 07:10 14.48547 120.96115 422 ft 124 kts 343°
2026-05-07 07:11 14.49361 120.95793 396 ft 130 kts 346°
2026-05-07 07:11 14.50224 120.95460 439 ft 130 kts 346°
2026-05-07 07:11 14.51067 120.95167 534 ft 129 kts 349°
2026-05-07 07:11 14.51928 120.94906 609 ft 128 kts 349°
2026-05-07 07:12 14.52792 120.94837 633 ft 125 kts 17°
2026-05-07 07:12 14.53571 120.95188 702 ft 117 kts 34°
2026-05-07 07:12 14.54247 120.95606 767 ft 116 kts 44°
2026-05-07 07:12 14.54872 120.96168 760 ft 118 kts 46°
2026-05-07 07:13 14.55380 120.96769 818 ft 111 kts 79°
2026-05-07 07:13 14.54896 120.97067 947 ft 105 kts 183°
2026-05-07 07:13 14.54212 120.96979 1132 ft 104 kts 185°
2026-05-07 07:13 14.53513 120.96857 1225 ft 99 kts 192°
2026-05-07 07:14 14.52802 120.96685 1264 ft 112 kts 192°
2026-05-07 07:14 14.52037 120.96462 1219 ft 115 kts 175°
2026-05-07 07:14 14.51540 120.96955 1260 ft 112 kts 104°
2026-05-07 07:14 14.51682 120.97669 1275 ft 111 kts 15°
2026-05-07 07:15 14.52140 120.97090 1207 ft 123 kts 267°
2026-05-07 07:15 14.51638 120.96367 1036 ft 132 kts 197°
2026-05-07 07:15 14.50817 120.96258 1209 ft 110 kts 174°
2026-05-07 07:15 14.50134 120.96564 1152 ft 108 kts 109°
2026-05-07 07:16 14.50367 120.97306 1081 ft 114 kts 44°
2026-05-07 07:16 14.51206 120.97445 943 ft 132 kts 349°
2026-05-07 07:16 14.51937 120.96903 1021 ft 125 kts 319°
2026-05-07 07:16 14.52502 120.96259 1089 ft 123 kts 312°
2026-05-07 07:17 14.53050 120.95545 1153 ft 125 kts 308°
2026-05-07 07:17 14.53514 120.94839 1183 ft 123 kts 306°
2026-05-07 07:17 14.54010 120.94088 1196 ft 125 kts 306°
2026-05-07 07:17 14.54491 120.93384 1229 ft 124 kts 326°
2026-05-07 07:18 14.55345 120.93352 1174 ft 118 kts 29°
2026-05-07 07:18 14.56031 120.93760 1279 ft 117 kts 28°
2026-05-07 07:18 14.56843 120.93985 1242 ft 122 kts 15°
2026-05-07 07:18 14.57626 120.94287 1315 ft 118 kts 26°
2026-05-07 07:19 14.58067 120.94903 1141 ft 127 kts 107°
2026-05-07 07:19 14.57584 120.95594 1259 ft 115 kts 131°
2026-05-07 07:19 14.57070 120.96207 1365 ft 113 kts 130°
2026-05-07 07:19 14.56505 120.96780 1335 ft 114 kts 143°
2026-05-07 07:20 14.55844 120.97233 1212 ft 116 kts 151°
2026-05-07 07:20 14.55131 120.97618 1127 ft 114 kts 146°
2026-05-07 07:20 14.54518 120.98125 1012 ft 111 kts 135°
2026-05-07 07:20 14.53950 120.98673 825 ft 112 kts 134°
2026-05-07 07:21 14.53449 120.99274 701 ft 102 kts 133°
2026-05-07 07:21 14.52952 120.99767 380 ft 99 kts 133°
2026-05-07 07:21 14.52493 121.00267 146 ft 92 kts 133°
2026-05-07 07:21 14.52063 121.00714 47 ft 83 kts 133°
2026-05-07 07:22 14.51704 121.01083 36 ft 62 kts 133°
2026-05-07 07:22 14.51354 121.01455 121 ft 76 kts 132°
2026-05-07 07:22 14.51012 121.01836 365 ft 71 kts 129°
2026-05-07 07:22 14.50678 121.02225 483 ft 77 kts 133°
2026-05-07 07:23 14.50314 121.02623 621 ft 88 kts 128°
2026-05-07 07:23 14.49919 121.03169 749 ft 84 kts 118°
2026-05-07 07:23 14.49640 121.03745 768 ft 101 kts 115°
2026-05-07 07:23 14.49353 121.04377 970 ft 95 kts 116°
2026-05-07 07:24 14.49086 121.04949 1142 ft 87 kts 115°
2026-05-07 07:24 14.48808 121.05553 1202 ft 97 kts 130°
2026-05-07 07:24 14.48109 121.05709 1370 ft 98 kts 174°
2026-05-07 07:24 14.47425 121.05696 1466 ft 108 kts 172°
2026-05-07 07:25 14.45976 121.05824 1730 ft 115 kts 175°
2026-05-07 07:25 14.45134 121.05794 1788 ft 121 kts 175°
2026-05-07 07:25 14.44345 121.05921 1923 ft 115 kts 150°
2026-05-07 07:26 14.43573 121.06201 1731 ft 139 kts 181°
2026-05-07 07:26 14.42581 121.06104 1492 ft 144 kts 181°
2026-05-07 07:26 14.41719 121.05929 1594 ft 115 kts 195°
2026-05-07 07:26 14.41341 121.05230 1275 ft 133 kts 290°
2026-05-07 07:27 14.41721 121.04480 1426 ft 115 kts 308°
2026-05-07 07:27 14.42193 121.03697 1331 ft 133 kts 307°
2026-05-07 07:27 14.42546 121.02877 1531 ft 124 kts 284°
2026-05-07 07:27 14.42785 121.01986 1331 ft 137 kts 307°
2026-05-07 07:28 14.43408 121.01328 1417 ft 120 kts 329°
2026-05-07 07:28 14.44036 121.00784 1408 ft 120 kts 332°
2026-05-07 07:28 14.44761 121.00361 1375 ft 118 kts 347°
2026-05-07 07:28 14.45493 121.00002 1430 ft 121 kts 331°
2026-05-07 07:29 14.46130 120.99402 1468 ft 121 kts 328°
2026-05-07 07:29 14.46751 120.98844 1567 ft 119 kts 324°
2026-05-07 07:29 14.47351 120.98249 1568 ft 119 kts 324°
2026-05-07 07:29 14.47997 120.97655 1525 ft 124 kts 326°
2026-05-07 07:30 14.48590 120.97070 1551 ft 120 kts 319°
2026-05-07 07:30 14.49232 120.96424 1272 ft 132 kts 321°
2026-05-07 07:30 14.49926 120.95861 1237 ft 124 kts 328°
2026-05-07 07:30 14.50631 120.95371 1146 ft 121 kts 346°
2026-05-07 07:31 14.51328 120.95762 928 ft 111 kts 50°
2026-05-07 07:31 14.51818 120.96307 888 ft 111 kts 54°
2026-05-07 07:31 14.52329 120.96923 807 ft 108 kts 57°
2026-05-07 07:31 14.52770 120.97528 832 ft 103 kts 56°
2026-05-07 07:32 14.53266 120.98090 744 ft 108 kts 53°
2026-05-07 07:32 14.53718 120.98729 734 ft 103 kts 74°
2026-05-07 07:32 14.53440 120.99303 422 ft 98 kts 141°
2026-05-07 07:32 14.52972 120.99768 213 ft 96 kts 134°
2026-05-07 07:33 14.52526 121.00235 159 ft 81 kts 135°
2026-05-07 07:33 14.52154 121.00618 56 ft 75 kts 133°
2026-05-07 07:33 14.51822 121.00965 38 ft 57 kts 132°
2026-05-07 07:33 14.51610 121.01190 34 ft 27 kts 130°
2026-05-07 07:34 14.51616 121.01270 33 ft 0 kts 44°
2026-05-07 07:34 14.51659 121.01313 33 ft 18 kts 42°
2026-05-07 07:34 14.51682 121.01335 33 ft 0 kts 40°
2026-05-07 07:36 14.51683 121.01336 33 ft 2 kts 49°
2026-05-07 07:36 14.51650 121.01390 32 ft 17 kts 135°
2026-05-07 07:37 14.51555 121.01490 30 ft 17 kts 132°
2026-05-07 07:37 14.51491 121.01555 29 ft 16 kts 134°
2026-05-07 07:37 14.51404 121.01644 28 ft 18 kts 134°
2026-05-07 07:37 14.51319 121.01733 27 ft 15 kts 136°
2026-05-07 07:38 14.51245 121.01811 26 ft 16 kts 134°
2026-05-07 07:38 14.51169 121.01886 27 ft 15 kts 132°
2026-05-07 07:38 14.51114 121.01941 28 ft 0 kts 135°
2026-05-07 07:39 14.51102 121.01953 29 ft 2 kts 136°
2026-05-07 07:39 14.51093 121.01962 29 ft 0 kts 134°
2026-05-07 07:39 14.51091 121.01964 29 ft 0 kts 134°
2026-05-07 07:43 14.51089 121.01967 30 ft 3 kts 134°
2026-05-07 07:43 14.51079 121.01979 30 ft 0 kts 129°
2026-05-07 07:44 14.51051 121.01989 31 ft 10 kts 195°
2026-05-07 07:45 14.51035 121.01919 28 ft 13 kts 319°
2026-05-07 07:45 14.51085 121.01912 27 ft 0 kts 50°
2026-05-07 07:45 14.51091 121.01922 28 ft 0 kts 56°
2026-05-07 07:46 14.51093 121.01955 29 ft 11 kts 118°
2026-05-07 07:46 14.51072 121.02045 33 ft 18 kts 62°
2026-05-07 07:46 14.51157 121.02198 33 ft 30 kts 59°
2026-05-07 07:46 14.51259 121.02379 30 ft 28 kts 66°
2026-05-07 07:47 14.51346 121.02537 27 ft 28 kts 56°
2026-05-07 07:47 14.51453 121.02728 23 ft 27 kts 59°
2026-05-07 07:47 14.51558 121.02707 22 ft 12 kts 329°
2026-05-07 07:47 14.51600 121.02701 22 ft 0 kts 60°
2026-05-07 07:48 14.51603 121.02708 22 ft 2 kts 60°
2026-05-07 07:48 14.51606 121.02712 22 ft 0 kts 60°